Preview of NWS' New Version of Forecast
This preview is not operational and should not be used for support decisions.
Latest weather observations around

Hagerstown, Washington County Regional Airport (KHGR)

Using English Units (Switch to International System of Units)
Date/ Time (EST) Wind (mph) Vis. (mi) Weather Sky Cond. Temp (°F) Rel. Humidity Wind Chill (°F) Heat Index (°F) Pressure Precip. (in)
Air Dwpt 6 hour Altimeter (inHg) Sea level (inHg) 1 hr 3 hr 6 hr
Max Min
Jan 18 08:53 NNW 5 1.75 Fog/Mist OVC005 30 26     85% 25   30.07 30.12      
Jan 18 07:53 Calm 1.5 Fog/Mist OVC005 30 26     85%     30.05 30.1      
Jan 18 06:53 Calm 2.5 Fog/Mist OVC005 30 26     85%     30.04 30.09     0
Jan 18 05:53 NW 5 2.5 Fog/Mist OVC006 30 26     85% 25   30.03 30.09 0    
Jan 18 05:19 NW 5 2 Fog/Mist OVC005 30 26     85% 25   30.04   0    
Jan 18 04:53 NW 6 1.75 Light Snow and Fog/Mist OVC004 30 26     85% 24   30.04 30.09 0    
Jan 18 04:45 NW 6 2 Fog/Mist OVC004 30 27     88% 24   30.04   0    
Jan 18 04:26 NW 3 2 Fog/Mist OVC006 31 27     85% 28   30.04   0    
Jan 18 03:53 NW 3 1.25 Light Snow and Fog/Mist OVC005 31 27     85% 28   30.05 30.1 0 0  
Jan 18 03:50 Calm 1.25 Light Snow and Fog/Mist OVC005 30 27     86%     30.05   0    
Jan 18 03:31 Calm 1.75 Light Snow and Fog/Mist OVC004 31 28     89%     30.06   0    
Jan 18 02:53 Calm 1.25 Light Snow and Fog/Mist OVC008 31 28     89%     30.07 30.12 0    
Jan 18 02:12 NNW 3 1.25 Light Snow and Fog/Mist BKN006 OVC010 32 28     85% 29   30.08   0    
Jan 18 02:01 NW 3 1.5 Light Snow and Fog/Mist FEW005 OVC010 32 28     85% 29   30.08   0    
Jan 18 01:53 Calm 2 Light Snow and Fog/Mist OVC012 32 29     88%     30.08 30.13 0    
Jan 18 01:25 Calm 3 Light Snow and Fog/Mist SCT010 BKN013 OVC029 32 29     88%     30.08   0    
Jan 18 01:11 Calm 1.75 Light Snow and Fog/Mist BKN010 OVC023 32 28     85%     30.08   0    
Jan 18 00:53 Calm 2 Light Snow and Fog/Mist BKN010 OVC023 32 28     85%     30.09 30.14 0   0
Jan 18 00:34 SE 5 2 Light Snow and Fog/Mist BKN010 OVC021 32 28     85% 27   30.1   0    
Jan 18 00:07 S 6 2.5 Light Snow and Fog/Mist SCT008 BKN023 OVC034 32 28     85% 26   30.12   0    
Jan 17 23:53 SSE 6 2 Light Snow and Fog/Mist BKN008 OVC032 32 28     85% 26   30.11 30.16 0    
Jan 17 23:08 SSE 5 2.5 Light Snow OVC008 32 27     81% 27   30.13   0    
Jan 17 22:53 SSE 5 4 Light Snow OVC008 32 27     81% 27   30.14 30.19 0    
Jan 17 22:30 SSE 3 5 Haze OVC009 32 27     81% 29   30.14        
Jan 17 21:53 SE 5 5 Haze OVC010 32 27     81% 27   30.15 30.2   0  
Jan 17 20:53 S 5 6 Haze OVC013 32 27     81% 27   30.16 30.21      
Jan 17 20:27 SSE 6 6 Fog/Mist OVC014 31 27     85% 25   30.16        
Jan 17 19:53 Calm 4 Fog/Mist FEW009 OVC016 31 28     89%     30.18 30.23 0    
Jan 17 19:48 Calm 4 Fog/Mist FEW009 OVC016 30 28     93%     30.18   0    
Jan 17 19:30 E 3 4 Fog/Mist SCT006 BKN014 OVC022 30 28     92% 27   30.18   0    
Jan 17 19:10 E 3 3 Light Snow and Fog/Mist BKN006 OVC023 31 28     89% 28   30.18   0    
Jan 17 18:53 ESE 5 2.5 Light Snow and Fog/Mist OVC006 31 27     85% 26   30.18 30.23 0   0
Jan 17 18:45 ESE 3 1.75 Light Snow and Fog/Mist OVC005 31 28     89% 28   30.19   0    
Jan 17 18:29 ESE 5 2 Light Snow and Fog/Mist BKN006 OVC015 31 28     89% 26   30.19   0    
Jan 17 18:11 ESE 5 1 Light Snow and Fog/Mist FEW006 OVC011 31 27     85% 26   30.19   0    
Jan 17 17:53 ESE 6 0.5 Snow and Fog VV010 31 27     85% 25   30.19 30.24 0    
Jan 17 17:40 SE 6 0.75 Light Snow and Fog/Mist VV011 31 27     85% 25   30.19   0    
Jan 17 17:27 SE 7 1 Light Snow and Fog/Mist VV013 31 27     85% 24   30.2   0    
Jan 17 16:53 SSE 9 1 Light Snow OVC025 32 25     75% 24   30.2 30.25 0    
Jan 17 16:48 SSE 8 1 Light Snow BKN026 OVC035 34 25     69% 27   30.2   0    
Jan 17 16:39 SSE 9 2.5 Light Snow BKN028 OVC035 34 23     64% 27   30.2   0    
Jan 17 15:53 SE 9 10 Cloudy OVC035 35 20     54% 28   30.21 30.25      
Jan 17 14:53 SSE 7 10 Cloudy OVC035 35 20     54% 29   30.21 30.26      
Jan 17 13:53 SE 7 10 Cloudy OVC034 34 20     56% 28   30.22 30.27      
Jan 17 12:53 E 7 10 Cloudy OVC038 34 19     54% 28   30.26 30.3      
Jan 17 11:53 E 7 10 Cloudy OVC039 34 20     56% 28   30.3 30.35      
Jan 17 10:53 ENE 5 10 Cloudy OVC041 34 19     54% 30   30.34 30.38      
Jan 17 09:53 ENE 9 10 Cloudy OVC041 33 19     56% 25   30.32 30.37      
Jan 17 08:53 NNE 6 10 Cloudy OVC036 32 18     56% 26   30.32 30.37      
Jan 17 07:53 NNE 7 10 Cloudy OVC033 32 19     58% 26   30.32 30.36      
Jan 17 06:53 NNE 5 10 Cloudy OVC031 33 21     61% 29   30.32 30.37      
Jan 17 05:53 N 5 10 Cloudy OVC031 33 20     58% 29   30.3 30.35      
Jan 17 04:53 NNE 5 10 Cloudy OVC031 34 22     61% 30   30.28 30.33      
Jan 17 03:53 N 5 10 Cloudy OVC030 35 23     61% 31   30.28 30.33      
Jan 17 02:53 NNW 3 10 Cloudy OVC033 35 24     64% 32   30.28 30.33      
Jan 17 01:53 WNW 3 10 Cloudy OVC036 36 23     59% 33   30.27 30.31      
Jan 17 00:53 WSW 3 10 Cloudy OVC037 36 23     59% 33   30.26 30.31      
Jan 16 23:53 W 3 10 Cloudy OVC037 36 23     59% 33   30.27 30.32      
Jan 16 22:53 WSW 5 10 Cloudy OVC039 36 23     59% 32   30.27 30.31      
Jan 16 21:53 W 6 10 Cloudy OVC039 36 23     59% 31   30.26 30.3      
Jan 16 20:53 WNW 8 10 Cloudy OVC039 36 23     59% 30   30.24 30.29      
Jan 16 19:53 WNW 9 10 Cloudy OVC040 37 24     59% 30   30.23 30.28      
Jan 16 18:53 NW 8 10 Cloudy OVC035 37 25     61% 31   30.21 30.26      
Jan 16 17:53 WNW 10 10 Cloudy OVC037 38 24     57% 31   30.19 30.24      
Jan 16 16:53 WNW 10 10 Cloudy OVC037 38 26     62% 31   30.16 30.21      
Jan 16 15:53 W 11 10 Cloudy OVC038 39 25     57% 32   30.14 30.19      
Jan 16 14:53 W 11 10 Cloudy OVC033 39 26     59% 32   30.12 30.17      
Jan 16 13:53 WNW 11 10 Cloudy OVC034 39 25     57% 32   30.11 30.15      
Jan 16 12:53 WNW 10 10 Cloudy OVC033 38 25     59% 31   30.1 30.15      
Jan 16 11:53 W 7 10 Cloudy OVC030 38 24     57% 33   30.13 30.17      
Jan 16 10:53 W 7 10 Cloudy OVC030 37 24     59% 32   30.14 30.19      
Jan 16 09:53 W 7 10 Cloudy OVC027 36 25     64% 30   30.13 30.18      
Jan 16 08:53 W 6 9 Cloudy OVC024 34 25     69% 29   30.11 30.16      
Jan 16 07:53 SW 7 10 Cloudy OVC024 33 24     69% 27   30.09 30.14      
Jan 16 06:53 SSW 5 10 Cloudy OVC025 31 22     69% 26   30.08 30.14      
Jan 16 05:53 SW 7 10 Cloudy OVC026 31 22     69% 24   30.07 30.12      
Jan 16 04:53 S 7 10 Cloudy OVC026 30 22     71% 23   30.05 30.11      
Jan 16 03:53 S 8 10 Cloudy OVC028 30 22     71% 22   30.06 30.11      
Jan 16 02:53 S 6 10 Cloudy OVC026 31 22     69% 25   30.08 30.13      
Jan 16 01:53 SSW 3 10 Cloudy OVC024 32 22     66% 29   30.08 30.13      
Jan 16 00:53 S 5 10 Cloudy OVC025 32 22     66% 27   30.09 30.14      
Jan 15 23:53 SW 3 10 Cloudy OVC025 32 22     66% 29   30.11 30.16      
Jan 15 22:53 5 10 Cloudy OVC025 31 21     66% 26   30.13 30.18      
Jan 15 22:00 SW 5 10 Mostly Cloudy BKN025 31 21     66% 26   30.13        
Jan 15 21:53 SW 6 10 Partly Cloudy SCT028 31 20     63% 25   30.14 30.19      
Jan 15 20:53 SSW 5 10 Mostly Clear FEW028 31 20     63% 26   30.14 30.2      
Jan 15 19:53 S 8 10 Clear CLR 31 19     61% 23   30.15 30.21      
Jan 15 18:53 WSW 7 10 Clear CLR 32 19     58% 26   30.16 30.22      
Jan 15 17:53 SW 5 10 Clear CLR 33 19     56% 29   30.15 30.2      
Jan 15 16:53 W 6 10 Clear CLR 33 19     56% 28   30.14 30.2      
Jan 15 15:53 W 6 10 Clear CLR 36 20     52% 31   30.15 30.2      
Jan 15 14:53 W 8 10 Clear CLR 37 20     50% 31   30.15 30.2      
Jan 15 13:53 WNW 8 10 Mostly Clear FEW031 36 20     52% 30   30.15 30.2      
Jan 15 12:53 W 8 10 Mostly Clear FEW030 35 21     56% 29   30.16 30.21      
Jan 15 11:53 W 5 9 Clear CLR 33 20     58% 29   30.19 30.24      
Jan 15 10:53 W 5 10 Clear   32 21     64% 27   30.22 30.27      
Jan 15 09:53 Calm 6 Haze CLR 29 23     78%     30.22 30.28      
May 15 02:07 S 7 10 Cloudy BKN055 OVC065 66 63     90%     29.96        
May 14 18:53 SSW 7 5 Light Rain and Fog/Mist FEW090 OVC110 72 68     87%   73 29.95 29.96 0    
May 13 23:01 Calm 5 Light Rain and Fog/Mist SCT007 BKN019 OVC110 60 59     96%     30.03   0    
May 13 03:46 NNE 5 2 Rain and Fog/Mist SCT008 BKN029 OVC049 63 62     97%     30.07   0    
May 13 03:18 NW 8 2 Thunderstorms and Rain and Fog/Mist FEW007 BKN031 OVC042 63 62     97%     30.08   0    
May 12 18:53 N 15 5 Light Rain FEW075 BKN090 OVC120 71 63     76%   71   30.02 0    
May 12 15:53 S 9 10 Clear CLR 86 63     46%   87 29.93 29.95      
May 12 08:53 NW 3 10 Clear CLR 59 52     78%     30.1 30.12      
May 12 03:53 NNW 13 10 Clear   59 47     64%     30.04 30.06      
May 12 00:53 NW 6 10 Mostly Clear FEW075 61 51     70%     30.05 30.07      
Jun 11 15:53 W 13 10 Clear CLR 91 60     36%   91 30.09 30.1      
Jun 11 12:53 WSW 13 10 Clear CLR 88 62     42%   88 30.12 30.13      
Jun 11 03:53 S 7 10 Clear CLR 70 60     71%     30.08 30.08      
Jun 08 13:53 NE 7 10 Mostly Cloudy BKN060 74 46     37%   73 29.94 29.96